Location: Namasale
(1.5000°N, 32.6167°E)
Time: 01:29:51
(UTC+00:00)

Vanguard 2 Rocket - Pass Details

Date: 22 April 2021
Orbit: 553 x 3326 km, 32.9° (Epoch: 10 May)

Event Time Altitude Azimuth Distance (km) Brightness Sun altitude
Rises 17:25:07 0° 311° (NW) 6,960 12.4 -23.3°
Reaches altitude 10° 17:30:28 10° 315° (NW) 5,636 11.7 -24.6°
Maximum altitude 17:45:42 55° 29° (NNE) 2,225 8.6 -28.3°
Enters shadow 17:48:32 45° 73° (ENE) 2,218 8.4 -29.0°
